Probability
0 0 0 0 0 0 0 0 0 0 0 0 0 0 0 0 0 0 0 0 0 0 0 0 0 0 0 0 0 1 2 2 1 1 2 2 1 0 0 0 0 0 0 0
0 0 0 0 0 0 0 0 0 0 0 0 0 0 0 0 0 0 0 0 0 0 0 0 0 0 0 0 0 0 1 1 0 0 1 2 1 0 0 0 0 0 0 0
0 0 0 0 0 0 0 0 0 0 0 0 0 0 0 0 0 0 0 0 0 0 0 0 0 0 0 0 0 0 0 0 0 0 0 1 1 0 0 0 0 0 0 0
0 0 0 0 0 0 0 0 0 0 0 0 0 0 0 0 0 0 0 0 0 0 0 0 0 0 0 0 0 0 0 0 0 0 0 0 0 0 0 0 0 0 0 0
0 0 0 0 0 0 0 0 0 0 0 0 0 0 0 0 0 0 0 0 0 0 0 0 0 0 0 0 0 0 0 0 0 0 0 0 0 0 0 0 0 0 0 0
0 0 0 0 0 0 0 0 0 0 0 0 0 0 0 0 0 0 0 0 0 0 0 0 0 0 0 0 0 0 0 0 0 0 0 0 0 0 0 0 0 0 0 0
0 0 0 0 0 0 0 0 0 0 0 0 0 0 0 0 0 0 0 0 0 0 0 0 0 0 0 0 0 0 0 0 0 0 0 0 0 0 0 0 0 0 0 0
0 0 0 0 0 0 0 0 0 0 0 0 0 0 0 0 0 0 0 0 0 0 0 0 0 0 0 0 0 0 0 0 0 0 0 0 0 0 0 0 0 0 0 0
0 0 0 0 0 0 0 0 0 0 0 0 0 0 0 0 0 0 0 0 0 0 0 0 0 0 0 0 0 0 0 0 0 0 0 0 0 0 0 0 0 0 0 0
0 0 0 0 0 0 0 0 0 0 0 0 0 0 0 0 0 0 0 0 0 0 0 0 0 0 0 0 0 0 0 0 0 0 0 0 0 0 0 0 0 0 0 0
0 0 0 0 0 0 0 0 0 0 0 0 0 0 0 0 0 0 0 0 0 0 0 0 0 0 0 0 0 0 0 0 0 0 0 0 0 0 0 0 0 0 0 0
0 0 0 0 0 0 0 0 0 0 0 0 0 0 0 0 0 0 0 0 0 0 0 0 0 0 0 0 0 0 0 0 0 0 0 0 0 0 0 0 0 0 0 0
0 0 0 0 0 0 0 0 0 0 0 0 0 0 0 0 0 0 0 0 0 0 0 0 0 0 0 0 0 0 0 0 0 0 0 0 0 0 0 0 0 0 0 0
0 0 0 0 0 0 0 0 0 0 0 0 0 0 0 0 0 0 0 0 0 0 0 0 0 0 0 0 0 0 0 0 0 0 0 0 0 0 0 0 0 0 0 0
0 0 0 0 0 0 0 0 0 0 0 0 0 0 0 0 0 0 0 0 0 0 0 0 0 0 0 0 0 0 0 0 0 0 0 0 0 0 0 0 0 0 0 0
0 0 0 0 0 0 0 0 0 0 0 0 0 0 0 0 0 0 0 0 0 0 0 0 0 0 0 0 0 0 0 0 0 0 0 0 0 0 0 0 0 0 0 0
0 0 0 0 0 0 0 0 0 0 0 0 0 0 0 0 0 0 0 0 0 0 0 0 0 0 0 0 0 0 0 0 0 0 0 0 0 0 0 0 0 0 0 0
0 0 0 0 0 0 0 0 0 0 0 0 0 0 0 0 0 0 0 0 0 0 0 0 0 0 0 0 0 0 0 0 0 0 0 0 0 0 0 0 0 0 0 0
0 0 0 0 0 0 0 0 0 0 0 0 0 0 0 0 0 0 0 0 0 0 0 0 0 0 0 0 0 0 0 0 0 0 0 0 0 0 0 0 0 0 0 0
0 0 0 0 0 0 0 0 0 0 0 0 0 0 0 0 0 0 0 0 0 0 0 0 0 0 0 0 0 0 0 0 0 0 0 0 0 0 0 0 0 0 0 0
0 0 0 0 0 0 0 0 0 0 0 0 0 0 0 0 0 0 0 0 0 0 0 0 0 0 0 0 0 0 0 0 0 0 0 0 0 0 0 0 0 0 0 0
0 0 0 0 0 0 0 0 0 0 0 0 0 0 0 0 0 0 0 0 0 0 0 0 0 0 0 0 0 0 0 0 0 0 0 0 0 0 0 0 0 0 0 0
0 0 0 0 0 0 0 0 0 0 0 0 0 0 0 0 0 0 0 0 0 0 0 0 0 0 0 0 0 0 0 0 0 0 0 0 0 0 0 0 0 0 0 0
0 0 0 0 0 0 0 0 0 0 0 0 0 0 0 0 0 0 0 0 0 0 0 0 0 0 0 0 0 0 0 0 0 0 0 0 0 0 0 0 0 0 0 0
0 0 0 0 0 0 0 0 0 0 0 0 0 0 0 0 0 0 0 0 0 0 0 0 0 0 0 0 0 0 0 0 0 0 0 0 0 0 0 0 0 0 0 0
0 0 0 0 0 0 0 0 0 0 0 0 0 0 0 0 0 0 0 0 0 0 0 0 0 0 0 0 0 0 0 0 0 0 0 0 0 0 0 0 0 0 0 0
0 0 0 0 0 0 0 0 0 0 0 0 0 0 0 0 0 0 0 0 0 0 0 0 0 0 0 0 0 0 0 0 0 0 0 0 0 0 0 0 0 0 0 0
Wind_Speed
9 10 9 11 14 12 12 12 10 11 12 14 10 7 7 7 7 5 4 4 3 3 3 3 3 5 7 8 9 10 11 12 13 12 11 11 11 11 11 11 11 11 10 9
7 8 9 12 14 14 14 13 13 13 14 9 8 6 5 6 6 5 4 5 5 3 2 3 4 5 6 7 8 10 11 11 10 10 10 11 11 11 11 10 10 10 10 10
5 6 6 9 9 10 9 8 9 11 11 7 7 6 5 5 6 6 6 6 5 4 4 4 4 4 6 7 7 9 9 9 10 10 11 11 10 11 11 11 10 10 10 10
4 3 7 7 3 4 7 7 6 7 7 7 9 7 4 4 5 6 6 7 6 5 4 3 2 2 3 5 7 8 8 8 9 10 10 10 10 11 10 9 9 9 9 9
3 5 8 7 4 3 5 5 3 5 6 7 8 5 4 5 6 6 6 5 5 5 4 3 1 1 3 5 6 7 7 8 9 10 10 10 10 10 8 8 8 8 8 8
4 5 6 5 6 5 2 3 3 4 5 6 4 3 6 8 9 8 7 6 5 4 3 2 1 1 4 5 6 7 7 7 8 9 10 11 10 9 7 7 7 7 7 7
7 7 8 7 6 2 2 4 4 4 4 4 3 5 7 8 8 7 7 7 5 4 3 2 1 2 4 5 6 5 5 6 6 7 8 9 8 7 8 7 7 7 7 5
5 7 9 4 2 1 4 4 4 3 4 5 5 6 6 7 8 8 8 7 5 4 4 3 1 3 3 4 3 4 5 6 6 6 6 7 8 8 8 8 8 7 7 5
7 8 6 3 4 5 4 5 4 4 4 4 5 6 6 7 7 7 8 6 5 4 4 3 1 2 4 3 3 5 6 6 6 6 6 7 9 9 8 7 7 7 6 6
6 8 8 7 6 5 4 5 5 5 5 4 5 6 7 7 6 6 7 6 5 4 4 4 3 2 2 2 4 5 6 6 6 6 6 6 6 7 7 7 7 7 7 7
8 9 8 8 6 6 6 6 6 6 5 4 5 6 7 7 7 6 6 6 4 4 4 5 3 2 2 3 4 5 5 5 5 5 6 6 5 5 6 5 8 9 8 8
10 9 8 9 7 7 7 7 7 7 7 6 5 6 7 7 7 6 6 6 5 5 5 5 3 3 3 4 5 6 6 6 5 5 5 5 5 4 4 5 8 9 10 9
14 12 11 12 11 8 7 8 8 7 7 8 6 6 6 7 6 6 6 6 6 6 6 5 4 4 3 4 5 6 7 6 5 5 5 6 6 6 5 5 7 9 12 12
11 9 11 10 10 9 8 9 7 7 7 7 7 6 6 6 7 6 7 6 6 6 5 5 4 5 4 4 4 5 6 6 6 5 6 6 6 6 6 7 6 4 6 12
10 10 11 10 9 8 7 7 8 8 7 7 6 6 6 7 7 7 7 6 5 5 5 4 4 5 3 3 4 5 5 5 5 5 5 5 6 6 6 6 6 6 5 7
8 7 8 8 9 9 8 8 9 9 8 8 7 7 7 7 7 7 7 5 5 6 5 4 5 4 3 3 4 4 4 7 7 6 6 6 6 6 6 7 7 7 7 7
7 8 7 8 9 9 9 9 9 9 8 9 8 7 7 6 7 7 7 5 5 6 5 4 4 3 3 4 4 4 4 6 9 7 6 6 6 7 7 7 7 7 6 8
7 9 9 9 9 9 9 9 8 9 8 8 8 7 7 7 8 8 6 5 4 4 4 4 4 3 3 4 4 4 5 5 6 6 6 6 6 6 6 7 8 8 6 8
6 7 8 9 9 9 9 9 8 8 8 7 8 8 7 7 7 6 5 5 5 5 4 3 3 3 3 4 5 4 5 6 6 5 6 8 7 6 6 7 7 7 8 7
7 7 8 9 8 8 8 8 7 7 7 7 7 7 7 6 5 4 4 5 5 4 3 3 3 3 3 5 5 4 6 7 7 6 6 7 7 7 7 7 8 8 7 7
8 8 9 9 9 8 8 7 7 7 7 6 7 7 6 6 5 4 3 4 4 3 3 4 3 3 3 5 6 5 6 6 6 7 7 7 7 7 7 8 8 7 7 7
7 8 9 9 8 8 7 6 6 7 6 5 6 6 5 5 4 4 4 4 3 3 2 2 3 4 5 6 4 5 6 6 6 6 6 6 7 7 7 8 8 7 7 7
7 8 9 9 8 8 8 6 6 6 6 6 6 5 5 5 3 3 3 2 2 3 2 2 4 7 8 5 4 5 6 6 6 6 6 6 6 7 7 8 7 7 7 7
8 8 8 8 7 7 7 7 6 5 5 5 4 4 4 2 2 2 2 3 4 4 3 4 8 9 8 4 5 5 5 6 6 6 6 6 6 6 7 7 7 7 7 8
7 7 7 7 6 5 6 6 5 3 3 2 2 2 2 2 2 2 2 3 5 5 3 6 9 9 6 5 5 5 5 5 6 6 6 6 6 6 6 6 7 7 7 7
7 6 6 6 5 5 5 4 3 2 2 1 1 0 0 1 2 2 3 3 5 6 4 4 5 6 5 5 5 5 5 6 6 6 6 6 7 7 6 6 8 6 6 6
6 5 5 5 4 4 4 3 3 2 1 1 1 1 2 2 3 4 4 4 5 5 4 4 5 5 5 5 6 6 5 5 5 6 6 6 6 6 6 7 6 6 6 6
Wind_Direction
255 264 256 261 260 248 231 229 236 255 263 276 296 310 318 326 328 331 333 323 304 261 227 209 199 193 186 185 180 176 178 184 190 188 184 181 180 180 180 181 183 182 182 184
273 267 265 265 256 250 246 243 243 256 264 273 290 308 317 323 326 322 318 310 306 290 236 210 206 199 189 185 181 176 180 185 181 176 176 178 179 177 176 179 178 177 181 183
272 289 294 260 245 238 237 237 235 247 262 295 297 296 301 311 319 319 322 317 304 292 263 234 216 204 196 186 172 173 178 176 173 172 175 177 173 173 176 177 175 176 180 180
268 297 246 245 270 253 246 247 254 268 287 291 287 279 278 311 316 315 321 317 308 299 288 273 236 202 186 165 165 169 171 171 170 169 170 168 169 174 176 173 174 176 176 177
231 250 268 280 285 254 239 259 296 289 300 312 309 290 284 327 324 305 301 299 298 298 291 283 249 167 149 155 159 162 169 171 171 168 166 166 170 174 171 166 169 171 170 169
225 243 252 269 298 290 214 253 324 321 313 316 338 291 287 325 328 322 322 316 314 313 315 308 294 152 151 160 163 174 176 170 167 165 166 170 171 167 161 161 164 160 161 168
227 243 262 279 304 351 168 255 296 298 301 310 282 259 285 308 318 320 323 318 318 320 311 289 261 156 164 167 183 180 159 151 158 162 164 164 159 156 151 149 148 151 152 155
215 229 250 289 34 181 240 261 274 288 297 298 292 295 302 311 319 324 324 318 319 322 317 313 267 158 169 189 182 145 142 146 152 155 153 151 151 150 148 149 150 151 148 147
210 229 249 253 226 240 248 265 269 274 280 285 295 302 310 316 317 316 314 310 314 315 315 317 307 190 185 187 145 143 143 147 147 146 148 153 155 154 152 155 156 158 160 163
250 256 261 266 264 263 264 270 277 278 279 278 285 298 306 305 305 306 307 305 313 322 317 308 305 276 204 165 149 147 152 151 149 150 151 151 154 157 161 164 163 164 166 166
252 265 279 267 253 266 272 274 280 288 280 271 281 289 293 296 295 294 299 298 296 294 289 285 288 277 214 166 152 152 154 154 153 154 155 152 152 162 165 175 175 170 172 166
248 251 257 270 274 278 276 278 282 285 287 285 272 275 287 288 288 287 292 295 293 290 286 281 270 258 222 180 164 160 160 161 159 155 153 150 142 116 103 142 155 159 158 156
247 258 260 267 273 270 269 275 279 274 272 280 279 271 278 284 285 285 287 290 286 283 283 279 269 249 219 187 175 173 171 168 162 159 158 157 155 151 139 108 121 142 150 152
248 258 265 265 268 275 274 277 278 275 272 273 274 276 276 280 281 283 283 283 280 278 277 271 259 248 220 189 178 175 169 166 166 166 163 163 162 159 157 153 145 133 143 149
250 247 256 268 270 273 274 276 278 278 278 277 271 270 273 278 282 283 283 282 280 274 269 264 255 249 219 186 175 175 171 166 161 160 159 159 155 151 152 151 147 142 133 141
266 266 265 267 269 273 274 271 269 274 277 277 272 269 270 272 277 283 281 275 272 271 268 264 257 246 213 183 172 171 170 163 161 159 157 156 155 155 155 155 153 155 156 152
267 270 272 274 272 273 271 267 265 268 270 270 269 269 271 273 278 281 278 271 265 265 265 260 255 241 207 186 177 169 162 161 158 158 162 162 161 162 162 161 162 161 160 162
259 264 266 266 269 273 274 271 268 265 263 264 267 266 264 264 267 272 275 276 276 275 268 254 236 219 200 185 173 164 163 165 166 164 160 161 161 160 160 160 159 157 153 158
286 284 282 278 276 273 272 271 269 267 267 264 261 259 258 256 259 265 270 267 260 264 269 248 218 205 188 176 164 160 158 159 159 159 158 159 158 159 161 161 159 159 156 155
298 297 295 290 286 278 274 273 272 270 265 259 257 258 259 258 257 258 257 259 254 249 242 218 191 185 177 166 155 157 158 160 162 162 160 162 163 163 161 159 158 158 157 156
301 299 296 294 290 286 279 274 271 269 269 261 254 253 254 258 253 244 241 258 266 240 212 199 185 176 169 160 151 154 158 159 161 163 163 162 161 160 159 158 157 157 156 153
298 297 295 293 290 289 285 279 271 267 265 261 256 250 247 251 249 247 243 240 239 208 187 177 171 168 162 152 148 149 151 151 152 155 158 159 158 158 158 156 155 153 152 152
297 298 297 294 291 289 289 282 272 261 257 254 249 242 239 241 233 225 245 241 198 180 163 164 157 150 144 136 142 144 145 145 147 151 153 153 153 154 153 151 150 150 151 149
298 299 299 299 296 292 291 292 284 269 258 254 250 243 234 234 247 238 210 181 171 155 150 151 144 139 128 124 131 135 137 139 141 143 142 141 142 143 144 145 145 145 145 144
299 298 300 303 302 296 293 294 292 280 267 259 260 258 242 211 199 189 162 155 150 139 137 144 137 128 120 121 124 126 128 133 136 135 135 137 137 137 140 141 141 141 142 144
299 299 298 294 292 292 292 289 282 272 255 242 248 234 125 122 134 137 132 128 129 121 117 122 125 118 113 115 116 117 120 127 125 122 125 126 127 130 132 133 133 136 138 138
299 300 302 305 304 301 296 290 281 270 243 200 162 109 101 100 105 107 109 112 111 106 104 104 105 105 105 106 107 106 106 108 111 114 116 117 121 124 127 127 128 128 130 133